Flag for Germany Weather past 2 weeks in Buchholz in der Nordheide, Lower Saxony, Germany

Now
79 °F

Sunny.


Feels Like: 79 °F
Forecast: 60 / 78 °F
Wind: 15 mph from Northeast

Location: Hamburg-Finkenwerder

Current Time: Jul 23, 2014 at 10:26:18 PM

Latest Report: Jul 23, 2014 at 7:20 PM


Visibility: 10 mi

Pressure: 30.09 "Hg

Humidity: 45%

Dew point: 55 °F

Location of Buchholz in der NordheideLocation

Historic Weather in Buchholz in der Nordheide — Graph

°F

Buchholz in der Nordheide temperature yesterday

Maximum temperature yesterday: 84 °F (at 4:20 PM)
Minimum temperature yesterday: 64 °F (at 5:50 AM)
Average temperature yesterday: 76 °F

Past Weeks' High & Low Weather Summary

 TemperatureHumidityPressure
High86 °F (Jul 18, 3:20 PM)100% (Jul 8, 7:50 PM)30.18 "Hg (Jul 8, 7:50 PM)
Low54 °F (Jul 17, 5:20 AM)37% (Jul 23, 3:50 PM)29.59 "Hg (Jul 9, 2:50 PM)
Average73 °F65%29.97 "Hg
* Reported Jul 8 7:20 PM — Jul 23 7:20 PM, Buchholz in der Nordheide, Weather by CustomWeather, © 2014

Note: Actual official high and low records may vary slightly from our data, if they occured in-between our weather recording intervals... More about our weather records

Advertising

Buchholz in der Nordheide weather history for previous 24 hours

 ConditionsComfort  
Time TempWeatherWind HumidityBarometerVisibility
7:20 PM
Jul 23
79 °FSunny.15 mph45%30.09 "Hg10 mi
6:50 PM79 °FSunny.21 mph42%30.09 "Hg10 mi
6:20 PM81 °FPassing clouds.17 mph39%30.09 "HgN/A
5:50 PM81 °FSunny.21 mph39%30.09 "Hg10 mi
5:20 PM81 °FPassing clouds.15 mph42%30.09 "HgN/A
4:50 PM82 °FSunny.17 mph40%30.09 "Hg10 mi
4:20 PM81 °FPassing clouds.18 mph39%30.09 "HgN/A
3:50 PM82 °FPassing clouds.13 mph37%30.09 "HgN/A
3:20 PM81 °FPassing clouds.15 mph39%30.12 "HgN/A
2:50 PM81 °FSunny.17 mph39%30.12 "Hg10 mi
1:20 PM79 °FSunny.18 mph42%30.15 "Hg10 mi
12:20 PM79 °FPassing clouds.18 mph42%30.15 "HgN/A
11:50 AM79 °FSunny.18 mph42%30.15 "Hg10 mi
11:20 AM77 °FScattered clouds.16 mph47%30.15 "HgN/A
10:50 AM77 °FPassing clouds.16 mph47%30.15 "HgN/A
10:20 AM75 °FPassing clouds.16 mph50%30.15 "HgN/A
7:50 AM70 °FPassing clouds.10 mph69%30.18 "HgN/A
7:20 AM66 °FPassing clouds.8 mph78%30.18 "HgN/A
6:50 AM66 °FSunny.7 mph78%30.18 "Hg10 mi
6:20 AM64 °FClear.3 mph83%30.18 "Hg10 mi
5:50 AM64 °FPassing clouds.5 mph83%30.18 "HgN/A
Weather by CustomWeather, © 2014

See weather overviewHow to use our weather pages